Weather Service Report


617 
FPUS83 KFGF 282331
OPUFGF
PRAIRIE TO PINES WEATHER ROUNDUP
NATIONAL WEATHER SERVICE EASTERN NORTH DAKOTA/GRAND FORKS ND
600 PM CDT FRI APR 28 2017

 **SATELLITE DATA USED TO AUGMENT SKY COVER AT AUTOMATED STATIONS**
 *****  WEATHER ACROSS EASTERN NORTH DAKOTA  *****
  
CITY           SKY/WX    TMP DP  RH WIND       PRES   REMARKS
GRAND FORKS    FAIR      55  25  31 N18       30.04R                  
GRAND FORKS AF FAIR      52  19  28 N16       30.05R                  
GRAND CITY NWS NOT AVBL                                               
BUXTON           N/A     53  24  32 N14         N/A                   
DEVILS LAKE    FAIR      55  13  18 NW16      30.06R                  
FARGO          FAIR      54  23  30 N14G22    30.04R                  
WAHPETON ARPT  FAIR      52  19  28 N12G21    30.04R                  
$$

 *****  WEATHER ACROSS CENTRAL AND WESTERN NORTH DAKOTA  *****
  
CITY           SKY/WX    TMP DP  RH WIND       PRES   REMARKS
JAMESTOWN      FAIR      54  19  25 N12       30.06R                  
BISMARCK       FAIR      56  12  17 NE6       30.08R                  
MINOT          FAIR      58  15  18 N9        30.07R                  
MINOT AFB      FAIR      56  14  19 NW6       30.06R                  
GARRISON         N/A     56  13  18 VRB6      30.07R                  
WILLISTON      FAIR      58  13  17 SW5       30.08R                  
DICKINSON      FAIR      52  14  22 CALM      30.05R                  
HETTINGER      FAIR      52  19  27 E9        30.08R                  
$$

 *****  OTHER OBSERVATIONS NORTHEAST NORTH DAKOTA  *****
  
CITY           SKY/WX    TMP DP  RH WIND       PRES   REMARKS
WALHALLA       NOT AVBL                                               
LANGDON        FAIR      54  14  20 N16G23    30.05R                  
CAVALIER       FAIR      52  14  22 NW20      30.05R                  
GRAFTON        FAIR      52  14  22 N16G22    30.08R                  
CANDO          NOT AVBL                                               
FORT TOTTEN    NOT AVBL                                               
ROLLA          FAIR      54   9  16 NW12G17   30.07R                  
RUGBY          NOT AVBL                                               
 ***** THE ABOVE OBSERVATIONS ARE NON NWS ARE NOT QUALITY
        CONTROLLED AND MAY MIS-REPORT RAIN FOR SNOW...
$$

 *****  OTHER OBSERVATIONS SOUTHEAST NORTH DAKOTA *****
  
CITY           SKY/WX    TMP DP  RH WIND       PRES   REMARKS
COOPERSTOWN    FAIR      52  21  30 N15G25    30.07R                  
VALLEY CITY    FAIR      54  16  22 N12       30.08R                  
OAKES          NOT AVBL                                               
GWINNER        CLEAR     54  19  26 MISG      30.05R                  
SHEYENNE NWR     N/A     54  13  19 N12       29.95S                  
BUFFALO          N/A     53  11  18 S8          N/A                   
WYNDMERE         N/A     54  19  26 N16         N/A                   
 ***** THE ABOVE OBSERVATIONS ARE NON NWS ARE NOT QUALITY
       CONTROLLED AND MAY MIS-REPORT RAIN FOR SNOW...
$$

  *****  WEATHER ACROSS NORTHERN MINNESOTA  *****     
  
CITY           SKY/WX    TMP DP  RH WIND       PRES   REMARKS
FLAG ISLAND    FAIR      45  19  36 NW9       30.02R                  
WARROAD        FAIR      46  23  39 E3        30.03R                  
ROSEAU         FAIR      50  16  25 N6        30.03R                  
HALLOCK        FAIR      54  -2  10 N13G21    30.03R                  
THF RVR FALLS  FAIR      50  12  21 N14       30.04R                  
HALSTAD          N/A     52  25  35 N17         N/A                   
FOSSTON        FAIR      50  18  27 N10       30.04R                  
BAUDETTE       FAIR      46  22  38 NW13      30.01R                  
WASKISH        FAIR      46  25  42 N8G16     30.02R                  
CROOKSTON      FAIR      52  21  30 N9        30.05R                  
$$
  *****  WEATHER ACROSS CENTRAL AND WEST MINNESOTA  *****     
  
CITY           SKY/WX    TMP DP  RH WIND       PRES   REMARKS
BEMIDJI        FAIR      47  16  28 N10       30.01R                  
PARK RAPIDS    FAIR      51   9  18 N12       29.99R                  
WADENA         FAIR      48  21  34 NW9       30.00R                  
DETROIT LAKES  FAIR      50  18  27 N15       30.04R                  
MOORHEAD       FAIR      52  21  30 N13       30.06R                  
FERGUS FALLS   FAIR      48  25  40 N13G20    30.03R                  
ELBOW LAKE     FAIR      50  22  33 N15G21    30.02R                  
MORRIS MN      FAIR      52  25  35 N16G22    30.01R                  
STAPLES        FAIR      52   9  17 N13       29.99R                  
WHEATON        FAIR      52  12  20 N15G22    30.06R                  
$$
  *****  WEATHER ELSEWHERE ACROSS MINNESOTA  *****     
  
CITY           SKY/WX    TMP DP  RH WIND       PRES   REMARKS
DULUTH         PTSUNNY   47  26  44 N10       29.93R                  
INTRNTL FALLS  FAIR      44  21  40 N10       30.00R                  
ELY            CLOUDY    36  25  64 NW9G16    29.98R                  
CLOQUET        FAIR      48  19  32 NW16      29.95R                  
BRAINERD       FAIR      50  18  28 N10       29.98R                  
HIBBING        FAIR      44  25  47 N14       29.96R                  
ALEXANDRIA     FAIR      50  21  32 N16       30.00R                  
SAINT CLOUD    FAIR      51  24  34 N9        29.96R                  
MINNEAPOLIS    PTSUNNY   51  29  42 VRB7      29.96R                  
$$

  *****  WEATHER ACROSS SOUTH DAKOTA  *****
  
CITY           SKY/WX    TMP DP  RH WIND       PRES   REMARKS
SIOUX FALLS    CLOUDY    48  32  53 NE14      29.98R                  
BROOKINGS      FAIR      49  24  37 NE15G23   29.99R                  
WATERTOWN      FAIR      49  20  31 N18       30.01R                  
HURON          FAIR      54  22  28 N18G29    30.01R                  
SISSETON         N/A     54  17  23 N16       30.03R                  
ABERDEEN       FAIR      53  17  24 N15G22    30.04S                  
MITCHELL       FAIR      53  28  38 E17       30.00R                  
PIERRE         FAIR      51  20  29 NE14G24   30.02R                  
MOBRIDGE       FAIR      56  10  16 NE10      30.03R                  
RAPID CITY     PTSUNNY   46  27  47 NE9       30.04R                  
$$

  *****  SOME WEATHER IN NEARBY STATES *****
  
CITY           SKY/WX    TMP DP  RH WIND       PRES   REMARKS
GLASGOW MT     CLOUDY    57  23  26 SW7       30.05R                  
GREAT FALLS MT CLOUDY    42  36  79 SE9       30.12R                  
CHEYENNE WY    SNOW      29  27  92 NE17G23   29.92R VSB 1/2 WCI  17  
SCOTTSBLUFF NE LGT SNOW  35  32  88 NE7       30.01R FOG              
OMAHA NE       DRIZZLE   42  37  82 N15       29.93R                  
DES MOINES IA  CLOUDY    45  40  82 NE14G22   29.91R                  
DAVENPORT IA   CLOUDY    46  45  96 NE15      29.86S FOG              
CHICAGO IL     PTSUNNY   58  45  62 NE10      29.87R                  
EAU CLAIRE WI  FAIR      49  29  46 N9        29.93R                  
LA CROSSE WI   CLOUDY    49  33  54 N8        29.95R                  
$$

  *****  SOME NATIONAL WEATHER *****
  
CITY           SKY/WX    TMP DP  RH WIND       PRES   REMARKS
LA GUARDIA NY  MOCLDY    78  54  43 S12       29.97S                  
RALEIGH NC     FAIR      85  65  51 S9        30.04S                  
ATLANTA GA     FAIR      83  66  56 S12       30.04R                  
NEW ORLEANS LA PTSUNNY   82  74  76 SE15G26   29.87S                  
OKLAHOMA CITY  PTSUNNY   76  60  57 SE12      29.62R                  
ALBUQUERQUE NM LGT RAIN  41  39  93 S7        29.77R FOG              
SALT LAKE CITY CLOUDY    41  36  82 NE7       29.94S                  
LOS ANGELES CA FAIR      68  50  52 W25       29.75F                  
BOISE ID       FAIR      57  30  35 N23G37    30.07S                  
SEATTLE WA     PTSUNNY   58  38  47 W8        30.34F                  
$$

*** WEATHER ACROSS MANITOBA...SASKATCHEWAN AND ONTARIO ***
                ***ONTARIO***
  
CITY           SKY/WX    TMP DP  RH WIND       PRES   REMARKS
GERALDTON      LGT SNOW  27  21  80 W13G21    29.79R DRFTSNOWWCI  16  
THUNDER BAY    CLOUDY    36  25  64 W10G18    29.93R                  
SIOUX LOOKOUT  PTSUNNY   39  18  41 N7        29.94R                  
TORONTO        PTSUNNY   63  39  42 SW15      29.96F                  
BIG TROUT LK   PTSUNNY   34  12  40 N13G26    29.89R WCI  25          
PICKLE LAKE    PTSUNNY   34  21  60 NW7G20    29.88R                  
DRYDEN         SUNNY     41  18  38 NW7       29.96R                  
KENORA         PTSUNNY   45  12  26 NW10      30.00R                  
$$      
                *** MANITOBA***
  
CITY           SKY/WX    TMP DP  RH WIND       PRES   REMARKS
BRANDON        MOSUNNY   55  12  18 N13       30.06R                  
DAUPHIN        SUNNY     52  12  20 NE10      30.09R                  
ISLAND LAKE    PTSUNNY   41  10  28 N9G18     30.04R                  
PILOT MOUND      N/A     54   7  15 N13G18      N/A                   
THE PAS        MOSUNNY   54   9  16 NE7       30.08S                  
THOMPSON       CLOUDY    45  18  33 N16       30.10R                  
WINNIPEG       MOSUNNY   52  12  20 N15G22    30.05R                  
LYNN LAKE      CLOUDY    46  18  31 E7        30.11S                  
CHURCHILL      PTSUNNY   23  18  80 N25G31    30.20R WCI   7          
GILLAM         PTSUNNY   39  21  48 N13       30.08R                  
$$
                ***SASKATCHEWAN***
  
CITY           SKY/WX    TMP DP  RH WIND       PRES   REMARKS
ESTEVAN        MOSUNNY   55  18  22 SE5       30.07R                  
KINDERSLEY     PTSUNNY   43  28  56 NW9G22    30.05S                  
LLOYDMINSTER   PTSUNNY   48  23  37 N7        30.06S                  
PRINCE ALBERT  PTSUNNY   55  16  21 E3        30.04S                  
REGINA         PTSUNNY   57  23  26 SW5       30.02S                  
YORKTON        SUNNY     55  19  24 VRB5      30.05R   

Return to Home page


Western Regional Climate Center, wrcc@dri.edu